JR6GUC-13 Weather Reports


time (UTC)temp
F
wind
direction
speed
knots
gust
knots
rain 1hr
in
rain 24hr
in
rain mn
in
humidity
%
barometer
mb
20260902163105 82 15 0.0 0.0 0.00 0.00 0.00 74 1005.8
20260902162531 82 330 0.0 0.0 0.00 0.00 0.00 74 1005.8
20260902162035 82 330 0.0 0.0 0.00 0.00 0.00 73 1006.0
20260902161543 82 52 0.0 0.0 0.00 0.00 0.00 73 1006.0
20260902161031 82 52 0.0 0.0 0.00 0.00 0.00 73 1006.0
20260902160532 82 52 0.0 0.0 0.00 0.00 0.00 73 1005.9
20260902160040 82 52 0.9 0.0 0.00 0.00 0.00 73 1005.9
20260902155547 83 72 3.5 0.0 0.00 0.00 0.00 73 1005.9
20260902155030 83 115 4.3 0.0 0.00 0.00 0.00 73 1006.0
20260902154537 83 122 3.5 0.0 0.00 0.00 0.00 73 1006.0
20260902154045 83 101 2.6 0.0 0.00 0.00 0.00 73 1006.0
20260902153528 83 133 2.6 0.0 0.00 0.00 0.00 73 1006.1
20260902153032 83 103 3.5 0.0 0.00 0.00 0.00 72 1006.1
20260902152539 83 86 4.3 0.0 0.00 0.00 0.00 72 1006.1
20260902152042 83 109 3.5 0.0 0.00 0.00 0.00 72 1006.1
20260902151529 83 108 2.6 0.0 0.00 0.00 0.00 72 1006.1
20260902151054 83 92 1.7 0.0 0.00 0.00 0.00 72 1006.1
20260902150548 83 92 0.9 0.0 0.00 0.00 0.00 71 1006.2
20260902150104 83 92 0.9 0.0 0.00 0.00 0.00 70 1006.2
20260902145536 83 92 1.7 0.0 0.00 0.00 0.00 70 1006.2
20260902145037 83 91 0.9 0.0 0.00 0.00 0.00 70 1006.2
20260902144545 83 91 0.9 0.0 0.00 0.00 0.00 70 1006.2
20260902144033 83 88 0.9 0.0 0.00 0.00 0.00 70 1006.2
20260902143538 83 84 0.9 0.0 0.00 0.00 0.00 70 1006.3
20260902143046 83 84 0.9 0.0 0.00 0.00 0.00 71 1006.3
20260902142534 83 84 1.7 0.0 0.00 0.00 0.00 71 1006.3
20260902142040 83 34 1.7 0.0 0.00 0.00 0.00 71 1006.3
20260902141544 83 78 0.9 0.0 0.00 0.00 0.00 72 1006.3
20260902141033 83 78 0.0 0.0 0.00 0.00 0.00 72 1006.3
20260902140538 83 78 0.9 0.0 0.00 0.00 0.00 72 1006.4
20260902140046 83 78 1.7 0.0 0.00 0.00 0.00 72 1006.4
20260902135535 83 49 2.6 0.0 0.00 0.00 0.00 72 1006.4
20260902135040 83 95 2.6 0.0 0.00 0.00 0.00 71 1006.6
20260902134548 83 63 1.7 0.0 0.00 0.00 0.00 72 1006.6
20260902134036 83 91 1.7 0.0 0.00 0.00 0.00 72 1006.6
20260902133537 83 83 2.6 0.0 0.00 0.00 0.00 73 1006.7
20260902133044 83 87 1.7 0.0 0.00 0.00 0.00 73 1006.7
20260902132552 83 79 2.6 0.0 0.00 0.00 0.00 73 1006.7
20260902132037 83 88 3.5 0.0 0.00 0.00 0.00 73 1006.7
20260902131544 83 91 3.5 0.0 0.00 0.00 0.00 73 1006.7
20260902131033 83 124 3.5 0.0 0.00 0.00 0.00 73 1006.7
20260902130538 83 92 3.5 0.0 0.00 0.00 0.00 73 1006.7
20260902130046 83 105 3.5 0.0 0.00 0.00 0.00 73 1006.7
20260902125550 83 64 6.1 0.0 0.00 0.00 0.00 73 1006.7
20260902125056 83 93 6.1 0.0 0.00 0.00 0.00 73 1006.9
20260902124543 83 127 4.3 0.0 0.00 0.00 0.00 74 1006.9
20260902124052 83 137 5.2 0.0 0.00 0.00 0.00 74 1006.9
20260902123536 83 91 5.2 0.0 0.00 0.00 0.00 75 1007.1
20260902123044 83 109 5.2 0.0 0.00 0.00 0.00 75 1007.1
20260902122533 83 117 4.3 0.0 0.00 0.00 0.00 75 1007.1
20260902122038 83 130 4.3 0.0 0.00 0.00 0.00 75 1007.0
20260902121542 83 134 3.5 0.0 0.00 0.00 0.00 75 1007.0
20260902121050 83 82 3.5 0.0 0.00 0.00 0.00 74 1007.0
20260902120535 83 130 3.5 0.0 0.00 0.00 0.00 74 1007.0
20260902120104 83 137 3.5 0.0 0.00 0.00 0.00 73 1007.0
20260902115550 83 122 3.5 0.0 0.00 0.00 0.00 73 1007.0
20260902115036 83 116 3.5 0.0 0.00 0.00 0.00 73 1006.9
20260902114544 83 107 3.5 0.0 0.00 0.00 0.00 73 1006.9
20260902114033 83 108 3.5 0.0 0.00 0.00 0.00 73 1006.9
20260902113534 84 70 1.7 0.0 0.00 0.00 0.00 72 1006.8
20260902113042 84 98 1.7 0.0 0.00 0.00 0.00 71 1006.8
20260902112532 84 94 1.7 0.0 0.00 0.00 0.00 71 1006.8
20260902112036 84 139 2.6 0.0 0.00 0.00 0.00 71 1006.8
20260902111544 84 139 2.6 0.0 0.00 0.00 0.00 71 1006.8
20260902111053 84 127 1.7 0.0 0.00 0.00 0.00 70 1006.8
20260902110537 84 127 0.9 0.0 0.00 0.00 0.00 70 1006.6
20260902110041 84 137 0.9 0.0 0.00 0.00 0.00 71 1006.6
20260902105549 84 79 2.6 0.0 0.00 0.00 0.00 71 1006.6
20260902105035 84 79 2.6 0.0 0.00 0.00 0.00 71 1006.4
20260902104543 84 100 3.5 0.0 0.00 0.00 0.00 71 1006.4
20260902104051 84 108 4.3 0.0 0.00 0.00 0.00 71 1006.4
20260902103536 84 89 3.5 0.0 0.00 0.00 0.00 71 1006.2
20260902103044 84 94 3.5 0.0 0.00 0.00 0.00 71 1006.2
20260902102533 84 94 3.5 0.0 0.00 0.00 0.00 70 1006.2
20260902102054 84 119 3.5 0.0 0.00 0.00 0.00 70 1006.1
20260902101541 84 109 4.3 0.0 0.00 0.00 0.00 70 1006.1
20260902101049 84 120 4.3 0.0 0.00 0.00 0.00 70 1006.1
20260902100534 85 77 3.5 0.0 0.00 0.00 0.00 70 1006.2
20260902100042 85 105 2.6 0.0 0.00 0.00 0.00 69 1006.2
20260902095550 85 98 1.7 0.0 0.00 0.00 0.00 68 1006.2
20260902095056 85 79 1.7 0.0 0.00 0.00 0.00 67 1006.2
20260902094543 85 91 1.7 0.0 0.00 0.00 0.00 67 1006.2
20260902094047 86 101 1.7 0.0 0.00 0.00 0.00 66 1006.2
20260902093532 86 104 2.6 0.0 0.00 0.00 0.00 66 1006.3
20260902093040 86 120 3.5 0.0 0.00 0.00 0.00 65 1006.3
20260902092547 86 77 3.5 0.0 0.00 0.00 0.00 65 1006.3
20260902092054 86 123 3.5 0.0 0.00 0.00 0.00 64 1006.3
20260902091541 86 102 3.5 0.0 0.00 0.00 0.00 64 1006.3
20260902091049 86 100 2.6 0.0 0.00 0.00 0.00 63 1006.3
20260902090535 87 101 3.5 0.0 0.00 0.00 0.00 63 1006.1
20260902090039 86 114 4.3 0.0 0.00 0.00 0.00 62 1006.1
20260902085547 86 72 6.1 0.0 0.00 0.00 0.00 62 1006.1
20260902085033 86 107 6.1 0.0 0.00 0.00 0.00 62 1006.1
20260902084540 87 103 6.1 0.0 0.00 0.00 0.00 61 1006.1
20260902084048 87 97 3.5 0.0 0.00 0.00 0.00 61 1006.1
20260902083534 87 131 4.3 0.0 0.00 0.00 0.00 61 1006.2
20260902083103 87 94 6.1 0.0 0.00 0.00 0.00 60 1006.2
20260902082607 87 106 6.1 0.0 0.00 0.00 0.00 60 1006.2
20260902082033 88 84 6.1 0.0 0.00 0.00 0.00 59 1006.0
20260902081540 88 113 6.1 0.0 0.00 0.00 0.00 58 1006.0
20260902081047 88 131 6.1 0.0 0.00 0.00 0.00 58 1006.0
20260902080533 88 124 7.8 0.0 0.00 0.00 0.00 59 1005.9
20260902080041 89 115 7.8 0.0 0.00 0.00 0.00 58 1005.9
20260902075549 89 71 7.0 0.0 0.00 0.00 0.00 56 1005.9
20260902075035 90 141 7.0 0.0 0.00 0.00 0.00 56 1005.7
20260902074539 90 115 6.1 0.0 0.00 0.00 0.00 54 1005.7
20260902074046 90 101 5.2 0.0 0.00 0.00 0.00 54 1005.7
20260902073533 90 109 6.1 0.0 0.00 0.00 0.00 54 1005.7
20260902073040 90 127 6.1 0.0 0.00 0.00 0.00 54 1005.7
20260902072547 90 124 6.1 0.0 0.00 0.00 0.00 53 1005.7
20260902072033 90 123 6.1 0.0 0.00 0.00 0.00 54 1005.6
20260902071602 90 115 5.2 0.0 0.00 0.00 0.00 54 1005.6
20260902071049 90 123 4.3 0.0 0.00 0.00 0.00 53 1005.6
20260902070611 89 130 5.2 0.0 0.00 0.00 0.00 54 1005.7
20260902070038 89 101 5.2 0.0 0.00 0.00 0.00 54 1005.7
20260902065545 90 118 4.3 0.0 0.00 0.00 0.00 52 1005.7
20260902065032 90 91 5.2 0.0 0.00 0.00 0.00 52 1005.8
20260902064538 89 113 6.1 0.0 0.00 0.00 0.00 53 1005.8
20260902064046 90 129 6.1 0.0 0.00 0.00 0.00 52 1005.8
20260902063552 90 135 7.8 0.0 0.00 0.00 0.00 52 1005.7
20260902063039 90 134 7.8 0.0 0.00 0.00 0.00 51 1005.7
20260902062604 90 145 7.8 0.0 0.00 0.00 0.00 50 1005.7
20260902062049 90 139 7.0 0.0 0.00 0.00 0.00 49 1005.7
20260902061540 91 174 7.0 0.0 0.00 0.00 0.00 49 1005.7
20260902061049 91 141 6.1 0.0 0.00 0.00 0.00 49 1005.7
20260902060555 91 82 5.2 0.0 0.00 0.00 0.00 49 1005.6
20260902060041 91 78 6.1 0.0 0.00 0.00 0.00 50 1005.6
20260902055543 91 78 7.0 0.0 0.00 0.00 0.00 49 1005.6
20260902055047 92 101 6.1 0.0 0.00 0.00 0.00 49 1005.6
20260902054533 91 147 6.1 0.0 0.00 0.00 0.00 49 1005.6
20260902054040 92 98 7.0 0.0 0.00 0.00 0.00 49 1005.6
20260902053613 92 111 6.1 0.0 0.00 0.00 0.00 46 1005.7
20260902053029 91 128 6.1 0.0 0.00 0.00 0.00 49 1005.7
20260902052538 91 91 7.0 0.0 0.00 0.00 0.00 51 1005.7
20260902052049 91 137 7.8 0.0 0.00 0.00 0.00 50 1006.0
20260902051551 91 110 6.1 0.0 0.00 0.00 0.00 52 1006.0
20260902051029 91 159 5.2 0.0 0.00 0.00 0.00 52 1006.0
20260902050533 91 120 5.2 0.0 0.00 0.00 0.00 51 1006.1
20260902050110 91 124 5.2 0.0 0.00 0.00 0.00 53 1006.1
20260902045529 91 92 6.1 0.0 0.00 0.00 0.00 53 1006.1
20260902045104 92 148 6.1 0.0 0.00 0.00 0.00 53 1006.2
20260902044608 92 124 5.2 0.0 0.00 0.00 0.00 52 1006.2
20260902044048 91 105 4.3 0.0 0.00 0.00 0.00 54 1006.2
20260902043552 91 91 5.2 0.0 0.00 0.00 0.00 54 1006.3
20260902043039 90 91 5.2 0.0 0.00 0.00 0.00 57 1006.2
20260902042547 89 115 6.1 0.0 0.00 0.00 0.00 57 1006.2
20260902042052 89 46 5.2 0.0 0.00 0.00 0.00 57 1006.6
20260902041539 90 80 4.3 0.0 0.00 0.00 0.00 57 1006.6
20260902041048 90 122 5.2 0.0 0.00 0.00 0.00 55 1006.6
20260902040534 90 110 5.2 0.0 0.00 0.00 0.00 54 1006.7
20260902040035 91 135 6.1 0.0 0.00 0.00 0.00 54 1006.7
20260902035543 91 150 6.1 0.0 0.00 0.00 0.00 54 1006.7
20260902035047 90 74 6.1 0.0 0.00 0.00 0.00 55 1006.8
20260902034533 90 105 5.2 0.0 0.00 0.00 0.00 55 1006.8
20260902034041 90 116 5.2 0.0 0.00 0.00 0.00 57 1006.8
20260902033543 90 174 5.2 0.0 0.00 0.00 0.00 56 1006.9
20260902033032 90 89 6.1 0.0 0.00 0.00 0.00 54 1006.9
20260902032538 90 72 5.2 0.0 0.00 0.00 0.00 53 1006.9
20260902032035 90 131 5.2 0.0 0.00 0.00 0.00 53 1007.0
20260902031540 89 72 4.3 0.0 0.00 0.00 0.00 55 1007.0
20260902031028 89 75 5.2 0.0 0.00 0.00 0.00 56 1007.0
20260902030532 89 45 6.1 0.0 0.00 0.00 0.00 57 1007.1
20260902030038 89 71 7.0 0.0 0.00 0.00 0.00 57 1007.1
20260902025544 89 83 7.0 0.0 0.00 0.00 0.00 58 1007.1
20260902025027 89 103 6.1 0.0 0.00 0.00 0.00 56 1007.1
20260902024527 89 49 6.1 0.0 0.00 0.00 0.00 57 1007.1
20260902024057 89 150 7.0 0.0 0.00 0.00 0.00 56 1007.1
20260902023539 90 97 7.0 0.0 0.00 0.00 0.00 56 1007.2
20260902023045 89 145 7.8 0.0 0.00 0.00 0.00 56 1007.2
20260902022532 89 143 7.0 0.0 0.00 0.00 0.00 57 1007.2
20260902022036 89 147 6.1 0.0 0.00 0.00 0.00 58 1007.3
20260902021542 89 97 6.1 0.0 0.00 0.00 0.00 57 1007.3
20260902021030 89 98 5.2 0.0 0.00 0.00 0.00 58 1007.3
20260902020528 89 158 5.2 0.0 0.00 0.00 0.00 58 1007.6
20260902020054 88 110 5.2 0.0 0.00 0.00 0.00 59 1007.6
20260902015539 88 139 4.3 0.0 0.00 0.00 0.00 61 1007.6
20260902015043 87 97 5.2 0.0 0.00 0.00 0.00 62 1007.7
20260902014530 87 49 5.2 0.0 0.00 0.00 0.00 62 1007.7
20260902014036 88 80 5.2 0.0 0.00 0.00 0.00 62 1007.7
20260902013540 88 86 7.0 0.0 0.00 0.00 0.00 60 1007.7
20260902013050 88 89 7.0 0.0 0.00 0.00 0.00 60 1007.7
20260902012555 88 145 7.8 0.0 0.00 0.00 0.00 61 1007.7
20260902012027 87 120 6.1 0.0 0.00 0.00 0.00 61 1007.7
20260902011539 88 106 3.5 0.0 0.00 0.00 0.00 63 1007.7
20260902011043 87 103 2.6 0.0 0.00 0.00 0.00 65 1007.7
20260902010546 87 122 1.7 0.0 0.00 0.00 0.00 66 1007.7
20260902010030 85 118 2.6 0.0 0.00 0.00 0.00 69 1007.7
20260902005555 85 189 1.7 0.0 0.00 0.00 0.00 69 1007.7
20260902005037 85 129 2.6 0.0 0.00 0.00 0.00 68 1007.7
20260902004541 85 65 3.5 0.0 0.00 0.00 0.00 68 1007.7
20260902004108 85 57 2.6 0.0 0.00 0.00 0.00 68 1007.7
20260902003528 84 72 1.7 0.0 0.00 0.00 0.00 70 1007.8
20260902003035 84 135 1.7 0.0 0.00 0.00 0.00 71 1007.8
20260902002540 83 87 1.7 0.0 0.00 0.00 0.00 74 1007.8
20260902002039 82 64 1.7 0.0 0.00 0.00 0.00 77 1008.1
20260902001544 82 53 2.6 0.0 0.00 0.00 0.00 77 1008.1
20260902001033 82 90 4.3 0.0 0.00 0.00 0.00 78 1008.1
20260902000559 82 98 4.3 0.0 0.00 0.00 0.00 78 1008.1
20260902000026 83 70 3.5 0.0 0.00 0.00 0.00 77 1008.1
20260901235533 84 148 3.5 0.0 0.00 0.00 0.00 72 1008.1
20260901235038 84 110 3.5 0.0 0.00 0.00 0.00 69 1007.8
20260901234527 84 124 5.2 0.0 0.00 0.00 0.00 69 1007.8
20260901234031 84 142 3.5 0.0 0.00 0.00 0.00 69 1007.8
20260901233533 84 120 1.7 0.0 0.00 0.00 0.00 70 1007.7
20260901233040 84 68 2.6 0.0 0.00 0.00 0.00 72 1007.7
20260901232528 84 82 3.5 0.0 0.00 0.00 0.00 71 1007.7
20260901232032 84 34 3.5 0.0 0.00 0.00 0.00 71 1007.7
20260901231600 84 43 2.6 0.0 0.00 0.00 0.00 71 1007.7
20260901231042 84 72 1.7 0.0 0.00 0.00 0.00 71 1007.7
20260901230538 84 74 2.6 0.0 0.00 0.00 0.00 72 1007.5
20260901230104 84 80 1.7 0.0 0.00 0.00 0.00 73 1007.5
20260901225556 84 63 0.9 0.0 0.00 0.00 0.00 74 1007.5
20260901225028 83 44 0.9 0.0 0.00 0.00 0.00 77 1007.6
20260901224532 82 94 0.0 0.0 0.00 0.00 0.00 79 1007.6
20260901224045 81 228 0.0 0.0 0.00 0.00 0.00 83 1007.6
20260901223607 80 228 0.0 0.0 0.00 0.00 0.00 84 1007.7
20260901223051 80 228 0.0 0.0 0.00 0.00 0.00 88 1007.7
20260901222529 79 228 0.0 0.0 0.00 0.00 0.00 88 1007.7
20260901222051 78 228 0.0 0.0 0.00 0.00 0.00 89 1007.9
20260901221534 78 228 0.0 0.0 0.00 0.00 0.00 89 1007.9
20260901221042 78 228 0.0 0.0 0.00 0.00 0.00 90 1007.9
20260901220527 78 228 0.0 0.0 0.00 0.00 0.00 90 1007.8
20260901220035 78 228 0.0 0.0 0.00 0.00 0.00 91 1007.8
20260901215543 78 228 0.0 0.0 0.00 0.00 0.00 91 1007.8
20260901215105 77 228 0.0 0.0 0.00 0.00 0.00 92 1007.7
20260901214528 77 228 0.0 0.0 0.00 0.00 0.00 92 1007.7
20260901214033 77 228 0.0 0.0 0.00 0.00 0.00 93 1007.7
20260901213534 76 228 0.0 0.0 0.00 0.00 0.00 93 1007.6
20260901213059 76 228 0.0 0.0 0.00 0.00 0.00 93 1007.6
20260901212545 76 228 0.0 0.0 0.00 0.00 0.00 93 1007.6
20260901212050 76 228 0.0 0.0 0.00 0.00 0.00 93 1007.5
20260901211529 76 228 1.7 0.0 0.00 0.00 0.00 93 1007.5
20260901211038 76 228 1.7 0.0 0.00 0.00 0.00 93 1007.5
20260901210541 76 228 0.0 0.0 0.00 0.00 0.00 93 1007.6
20260901210048 76 228 0.0 0.0 0.00 0.00 0.00 93 1007.6
20260901205534 76 228 0.0 0.0 0.00 0.00 0.00 93 1007.6
20260901205039 76 228 0.0 0.0 0.00 0.00 0.00 93 1007.5
20260901204526 76 228 0.0 0.0 0.00 0.00 0.00 93 1007.5
20260901204054 76 228 0.0 0.0 0.00 0.00 0.00 93 1007.5
20260901203533 76 228 0.0 0.0 0.00 0.00 0.00 93 1007.6
20260901203041 76 228 0.0 0.0 0.00 0.00 0.00 93 1007.6
20260901202556 76 228 0.0 0.0 0.00 0.00 0.00 93 1007.6
20260901202031 76 228 0.9 0.0 0.00 0.00 0.00 92 1007.6
20260901201548 77 228 0.0 0.0 0.00 0.00 0.00 92 1007.6
20260901201054 77 229 0.0 0.0 0.00 0.00 0.00 92 1007.6
20260901200529 77 229 0.0 0.0 0.00 0.00 0.00 91 1007.7
20260901200033 77 229 0.0 0.0 0.00 0.00 0.00 91 1007.7
20260901195550 77 229 0.0 0.0 0.00 0.00 0.00 91 1007.7
20260901195026 77 229 0.0 0.0 0.00 0.00 0.00 91 1007.5
20260901194534 77 229 0.0 0.0 0.00 0.00 0.00 91 1007.5
20260901194050 77 229 0.0 0.0 0.00 0.00 0.00 91 1007.5
20260901193551 77 229 0.0 0.0 0.00 0.00 0.00 90 1007.7
20260901193039 78 229 0.0 0.0 0.00 0.00 0.00 90 1007.7
20260901192547 78 229 0.0 0.0 0.00 0.00 0.00 90 1007.7
20260901192108 78 229 0.0 0.0 0.00 0.00 0.00 90 1007.7
20260901191527 78 229 0.0 0.0 0.00 0.00 0.00 90 1007.7
20260901191042 78 229 0.0 0.0 0.00 0.00 0.00 90 1007.7
20260901190608 78 229 0.0 0.0 0.00 0.00 0.00 90 1007.7
20260901190027 78 229 0.0 0.0 0.00 0.00 0.00 90 1007.7
20260901185544 78 229 0.9 0.0 0.00 0.00 0.00 90 1007.7
20260901185049 78 229 0.9 0.0 0.00 0.00 0.00 90 1007.6
20260901184526 78 143 0.0 0.0 0.00 0.00 0.00 89 1007.6
20260901184039 78 143 0.0 0.0 0.00 0.00 0.00 89 1007.6
20260901183603 78 143 0.0 0.0 0.00 0.00 0.00 88 1007.7
20260901183050 78 143 0.0 0.0 0.00 0.00 0.00 88 1007.7
20260901182537 78 143 0.0 0.0 0.00 0.00 0.00 89 1007.7
20260901182102 78 143 0.0 0.0 0.00 0.00 0.00 88 1007.7
20260901181548 78 143 0.0 0.0 0.00 0.00 0.00 88 1007.7
20260901181035 79 143 0.0 0.0 0.00 0.00 0.00 88 1007.7
20260901180535 79 143 0.0 0.0 0.00 0.00 0.00 88 1007.7
20260901180043 79 143 0.0 0.0 0.00 0.00 0.00 88 1007.7
20260901175531 79 143 0.0 0.0 0.00 0.00 0.00 88 1007.7
20260901175035 78 143 0.0 0.0 0.00 0.00 0.00 88 1007.7
20260901174604 78 143 0.0 0.0 0.00 0.00 0.00 88 1007.7
20260901174030 78 143 0.0 0.0 0.00 0.00 0.00 87 1007.7
20260901173533 79 143 0.0 0.0 0.00 0.00 0.00 87 1008.0
20260901173041 79 143 0.0 0.0 0.00 0.00 0.00 87 1008.0
20260901172544 79 143 0.0 0.0 0.00 0.00 0.00 87 1008.0
20260901172050 79 143 0.0 0.0 0.00 0.00 0.00 86 1007.8
20260901171536 79 143 0.0 0.0 0.00 0.00 0.00 86 1007.8
20260901171042 79 143 0.0 0.0 0.00 0.00 0.00 85 1007.8
20260901170544 80 143 0.0 0.0 0.00 0.00 0.00 84 1008.1
20260901170052 80 143 0.0 0.0 0.00 0.00 0.00 84 1008.1
20260901165540 80 143 0.0 0.0 0.00 0.00 0.00 84 1008.1
20260901165040 80 143 0.0 0.0 0.00 0.00 0.00 84 1008.2
20260901164527 80 143 0.0 0.0 0.00 0.00 0.00 83 1008.2
20260901164033 80 143 0.0 0.0 0.00 0.00 0.00 83 1008.2
20260901163538 80 143 0.0 0.0 0.00 0.00 0.00 83 1008.0